Cloud_Cover
3 1 1 0 0 0 0 4 4 0 3 10 0 0 5 0 0 0 3 3 0 0 0 0 5 1 5 5 5 0 5 0 0 0 0 17 61 66 5 15 97 100 72
5 5 5 5 7 4 5 0 4 3 4 4 1 0 1 2 0 0 0 0 0 0 0 4 0 5 0 51 6 0 0 0 0 5 5 5 18 19 58 97 88 100 100
6 5 0 4 98 100 87 17 0 0 0 0 5 1 1 0 0 2 2 1 4 0 0 2 0 0 0 2 2 0 0 0 0 0 0 2 9 5 17 26 9 5 34
20 4 4 1 5 78 100 75 3 1 3 0 0 4 1 5 5 3 1 0 2 0 1 3 2 0 0 0 0 0 0 0 0 0 0 1 5 34 12 5 5 7 7
34 20 13 5 2 4 97 100 4 1 3 0 0 0 5 4 4 0 0 2 3 16 2 0 0 0 0 0 0 1 1 4 0 3 5 5 5 100 5 11 8 7 6
89 88 44 50 65 60 5 2 4 5 2 0 0 0 0 1 0 0 5 0 0 0 0 0 0 2 16 1 1 2 26 5 5 5 5 8 34 69 66 37 33 21 30
100 91 80 92 100 100 85 57 14 7 6 4 0 0 0 0 0 0 1 0 5 0 0 1 0 0 4 0 17 47 42 6 33 6 33 24 34 86 92 98 92 71 76
100 100 87 100 100 100 100 92 98 90 100 75 41 20 2 0 2 5 2 0 0 15 87 55 53 65 79 10 32 17 5 9 5 2 27 74 75 65 67 93 100 100 100
99 100 92 100 100 100 100 100 100 100 100 100 100 99 53 63 100 100 100 54 65 93 100 100 100 100 88 100 42 51 90 60 86 79 33 18 7 5 5 23 92 100 100
100 100 97 92 100 100 98 100 100 100 100 100 100 100 100 100 100 100 100 100 100 38 69 100 100 100 100 100 100 100 100 100 100 100 99 100 97 80 90 100 100 100 100
100 100 100 98 100 100 100 100 100 100 100 100 100 100 100 100 100 100 100 100 100 100 100 100 96 93 90 100 100 100 100 100 100 100 100 100 100 100 100 100 100 100 100
100 100 100 100 100 100 100 100 100 100 100 100 100 100 100 100 100 100 100 100 100 100 100 100 100 100 100 100 100 100 100 100 100 100 100 100 100 100 100 100 100 100 100
100 100 100 100 100 100 100 100 100 100 100 100 100 100 100 100 100 100 100 100 100 100 100 100 100 100 100 100 100 100 100 100 100 100 100 100 100 100 100 100 100 100 100
100 100 100 100 100 100 100 100 100 100 100 100 100 100 100 100 100 100 100 100 100 100 100 100 100 100 98 100 100 100 100 100 100 100 100 100 100 100 100 100 100 100 100
100 100 100 100 100 100 99 98 100 100 100 100 100 100 100 100 96 100 100 100 100 100 100 100 100 100 100 100 100 100 100 100 100 100 100 100 100 100 100 100 100 100 91
100 100 100 100 92 100 98 100 100 100 100 100 100 100 100 100 100 100 100 100 100 100 100 100 100 100 100 100 100 100 100 100 100 100 100 97 100 100 100 100 100 99 100
100 100 100 100 100 100 100 100 100 100 100 100 100 100 100 100 100 100 100 100 100 100 100 100 100 100 100 100 100 100 100 100 100 100 100 100 100 100 100 100 95 99 94
100 100 100 100 100 100 100 100 100 100 81 88 100 100 100 100 100 100 100 100 100 98 100 100 100 100 100 100 100 100 100 100 100 100 100 100 100 100 100 100 100 100 100
100 100 100 98 100 98 93 100 100 99 98 85 60 54 89 100 100 100 100 100 100 100 69 99 100 100 100 100 100 100 100 100 100 100 100 100 100 100 100 100 100 100 100
9 86 76 50 54 38 98 100 97 36 5 5 5 5 8 29 85 100 70 39 34 97 100 100 100 100 100 100 100 100 100 100 100 100 100 100 100 100 100 80 100 100 100
4 78 96 100 33 8 26 96 100 98 48 6 5 7 6 5 4 4 64 99 97 99 100 100 100 100 100 100 100 100 100 100 100 100 100 100 100 100 100 100 100 72 72
0 0 0 56 100 93 64 98 99 98 100 100 56 20 5 4 2 2 4 4 4 4 23 20 44 96 100 100 51 70 97 74 44 92 7 44 3 2 3 5 5 6 51
0 0 0 0 0 17 86 93 86 36 32 14 15 22 32 24 6 4 4 16 5 3 2 3 21 56 74 92 30 35 74 35 2 1 5 24 5 0 2 2 5 5 6
0 0 0 0 0 0 0 0 0 19 86 60 30 23 86 95 94 96 8 56 74 90 83 18 4 1 2 1 1 1 0 0 0 0 0 0 0 0 0 0 0 0 0
0 0 0 0 0 0 0 0 0 0 0 0 0 0 0 0 0 0 4 10 31 69 3 0 0 0 0 0 0 0 0 0 0 0 0 1 2 5 5 6 5 5 5
0 0 0 0 0 0 0 0 0 0 0 0 0 2 4 5 5 6 5 5 5 5 4 4 3 0 0 2 5 5 5 5 20 26 10 12 5 98 30 17 3 5 4